TimePST,TemperatureF,Dew PointF,Humidity,Sea Level PressureIn,VisibilityMPH,Wind Direction,Wind SpeedMPH,Gust SpeedMPH,PrecipitationIn,Events,Conditions,WindDirDegrees,DateUTC
12:56 AM,16.0,12.0,84,30.61,9.0,Calm,Calm,-,N/A,,Clear,0,2013-12-09 08:56:00
1:56 AM,15.1,10.9,84,30.61,10.0,Calm,Calm,-,N/A,,Clear,0,2013-12-09 09:56:00
2:56 AM,14.0,10.9,88,30.62,10.0,Calm,Calm,-,N/A,,Clear,0,2013-12-09 10:56:00
3:56 AM,14.0,10.0,84,30.61,10.0,SSE,3.5,-,N/A,,Clear,160,2013-12-09 11:56:00
4:56 AM,12.0,10.0,92,30.61,9.0,South,4.6,-,N/A,,Clear,180,2013-12-09 12:56:00
5:56 AM,12.9,10.0,88,30.60,10.0,South,5.8,-,N/A,,Clear,190,2013-12-09 13:56:00
6:56 AM,12.0,9.0,88,30.61,9.0,Calm,Calm,-,N/A,,Clear,0,2013-12-09 14:56:00
7:56 AM,12.0,10.0,92,30.63,8.0,Calm,Calm,-,N/A,,Clear,0,2013-12-09 15:56:00
8:56 AM,17.1,14.0,88,30.63,9.0,SSE,5.8,-,N/A,,Clear,160,2013-12-09 16:56:00
9:56 AM,21.0,16.0,81,30.63,10.0,Calm,Calm,-,N/A,,Overcast,0,2013-12-09 17:56:00
10:56 AM,24.1,18.0,77,30.61,10.0,Calm,Calm,-,N/A,,Overcast,0,2013-12-09 18:56:00
11:56 AM,26.1,17.1,69,30.59,10.0,SSW,3.5,-,N/A,,Overcast,210,2013-12-09 19:56:00
12:56 PM,28.0,19.0,69,30.58,10.0,Calm,Calm,-,N/A,,Overcast,0,2013-12-09 20:56:00
1:56 PM,30.0,18.0,61,30.57,10.0,SE,5.8,-,N/A,,Overcast,130,2013-12-09 21:56:00
2:56 PM,30.0,18.0,61,30.57,10.0,SE,3.5,-,N/A,,Overcast,130,2013-12-09 22:56:00
3:56 PM,30.0,19.9,66,30.57,10.0,NE,4.6,-,N/A,,Overcast,50,2013-12-09 23:56:00
4:56 PM,28.9,21.0,72,30.56,10.0,NE,3.5,-,N/A,,Overcast,40,2013-12-10 00:56:00
5:56 PM,28.9,21.0,72,30.55,10.0,Calm,Calm,-,N/A,,Overcast,0,2013-12-10 01:56:00
6:56 PM,28.9,21.9,75,30.54,10.0,Calm,Calm,-,N/A,,Overcast,0,2013-12-10 02:56:00
7:56 PM,30.0,21.9,72,30.55,10.0,North,3.5,-,N/A,,Overcast,350,2013-12-10 03:56:00
8:56 PM,28.9,21.0,72,30.55,10.0,Calm,Calm,-,N/A,,Mostly Cloudy,0,2013-12-10 04:56:00
9:56 PM,28.0,21.9,78,30.56,10.0,North,3.5,-,N/A,,Overcast,360,2013-12-10 05:56:00
10:56 PM,28.0,21.9,78,30.55,10.0,Calm,Calm,-,N/A,,Overcast,0,2013-12-10 06:56:00
11:56 PM,28.9,23.0,78,30.56,10.0,Calm,Calm,-,N/A,,Overcast,0,2013-12-10 07:56:00